Regional Weather Roundup
Issued by NWS Cleveland, OH

Home | Current Version | Previous Version | Graphics & Text | Print | Product List | Glossary On
Versions: 1 2 3 4 5 6 7 8 9 10 11 12 13 14 15 16 17 18 19 20 21 22 23 24 25 26 27 28 29 30 31 32 33 34 35 36 37 38 39 40 41 42 43 44 45 46 47 48 49 50
866
ASUS41 KCLE 250012
RWRCLE
OHIO REGIONAL WEATHER ROUNDUP
NATIONAL WEATHER SERVICE WILMINGTON, OH
800 PM EDT WED MAY 24 2017

NOTE: "FAIR" INDICATES FEW OR NO CLOUDS BELOW 12,000 FEET WITH NO
SIGNIFICANT WEATHER AND/OR OBSTRUCTIONS TO VISIBILITY.

OHZ001>008-015>018-024>027-034-035-043-044-250100-
   NORTHWEST OHIO

CITY           SKY/WX    TMP DP  RH WIND       PRES   REMARKS
DEFIANCE       LGT RAIN  59  57  93 NE13G20   29.45F FOG
FINDLAY        CLOUDY    65  59  81 E10       29.42S
TOLEDO EXPRESS LGT RAIN  58  58 100 NE14      29.48R FOG
TOLEDO EXEC    CLOUDY    60  59  96 E10       29.48F
LIMA           CLOUDY    64  60  87 E9        29.41S
$$

OHZ009>014-019>023-028>033-038-089-250100-
   NORTHEAST OHIO

CITY           SKY/WX    TMP DP  RH WIND       PRES   REMARKS
CLE-HOPKINS    LGT RAIN  64  58  80 E12       29.51S
CLE-LAKEFRONT  LGT RAIN  63  57  81 E12G21    29.48F
CUY CO. ARPT   LGT RAIN  64  57  77 E16       29.52S FOG
LORAIN-ELYRIA    N/A    N/A N/A N/A MISG      29.48F
ASHTABULA      CLOUDY    66  53  63 SE12      29.56R
AKRON-CANTON   LGT RAIN  61  57  87 E13       29.51F FOG
WOOSTER        LGT RAIN  61  59  93 SE20G31   29.47R
MANSFIELD      LGT RAIN  61  60  97 NE9       29.46S
YOUNGSTOWN     RAIN      60  55  83 SE13      29.56R
$$

OHZ042-051>053-060>062-070>072-077>081-250100-
  SOUTHWEST OHIO

CITY           SKY/WX    TMP DP  RH WIND       PRES   REMARKS
CINC-COVINGTON LGT RAIN  60  59  96 N9        29.37S FOG
CINC-LUNKEN    TSTM      61  61 100 NW13      29.37R FOG
HAMILTON       HVY RAIN  61  28  28 NW9       29.37S
DAYTON         CLOUDY    65  58  78 NE9       29.36F
WRIGHT-PAT AFB LGT RAIN  65  63  91 E10       29.35F
DAYTON GENERAL LGT RAIN  62  58  86 SW8       29.35S
WILMINGTON     MOCLDY    66  61  84 SE10G18   29.37S
$$

OHZ036-037-039>041-045>050-054>059-063>069-073>076-082>088-250100-
  CENTRAL AND SOUTHEAST OHIO

CITY           SKY/WX    TMP DP  RH WIND       PRES   REMARKS
COLUMBUS       MOCLDY    68  61  78 SE9G18    29.40S
OSU AIRPORT    CLOUDY    67  62  84 E9        29.40S
BOLTON FIELD   MOCLDY    66  61  84 SE9       29.40F
RICKENBACK AFB CLOUDY    66  61  83 SE8       29.40R
NEWARK         CLOUDY    67  60  78 SE7       29.42S
MARION         CLOUDY    65  59  81 E10       29.43S
LANCASTER      CLOUDY    68  60  75 S8        29.42R
ZANESVILLE     LGT RAIN  66  61  84 SE12G23   29.44R
NEW PHILLY     CLOUDY    62  60  93 SE7       29.49S
$$




USA.gov is the U.S. government's official web portal to all federal, state and local government web resources and services.